[Iaude] MPEC M122: 2024 MO1 [a=1.43,e=0.69,i=14.9,H=23.4]
    mpec at cfa.harvard.edu 
    mpec at cfa.harvard.edu
       
    Sun Jun 30 09:59:51 EDT 2024
    
    
  
M.P.E.C. 2024-M122                                Issued 2024 June 30, 13:57 UT
     The Minor Planet Electronic Circulars contain information on unusual
         minor planets, routine data on comets and natural satellites,
         and occasional editorial announcements.  They are published
    on behalf of Division F of the International Astronomical Union by the
          Minor Planet Center, Smithsonian Astrophysical Observatory,
                          Cambridge, MA 02138, U.S.A.
			  
             Prepared using the Tamkin Foundation Computer Network
                              MPC at CFA.HARVARD.EDU
            URL https://www.minorplanetcenter.net/    ISSN 1523-6714
                                    2024 MO1                                    
Observations:
     K24M01O  C2024 06 28.49228920 38 10.268-16 25 51.82         19.31GVEM122F51
     K24M01O  C2024 06 28.50400120 37 52.438-16 25 26.84         19.42GVEM122F51
     K24M01O  C2024 06 28.51571620 37 34.637-16 25 01.72         19.39GVEM122F51
     K24M01O  C2024 06 28.52740220 37 16.919-16 24 36.42         19.22GVEM122F51
     K24M01O  C2024 06 29.46813920 16 09.991-15 49 44.89         19.38GVEM122F52
     K24M01O* C2024 06 29.47994720 15 55.032-15 49 18.67         19.96wXEM122F52
     K24M01O  C2024 06 29.50358220 15 25.207-15 48 25.88         19.91wXEM122F52
     K24M01O  C2024 06 29.56717320 14 05.713-15 46 01.49         18.84GVEM122F52
     K24M01O  C2024 06 29.56800120 14 04.692-15 45 59.45         19.03GVEM122F52
     K24M01O KC2024 06 29.97293 20 06 18.33 -15 31 18.9                VEM122104
     K24M01O KC2024 06 29.98851 20 06 00.55 -15 30 44.3          20.2 GVEM122104
     K24M01O KB2024 06 30.06177820 04 38.42 -15 28 00.8          20.0 GXEM122958
     K24M01O KB2024 06 30.06551120 04 34.24 -15 27 52.7                XEM122958
     K24M01O KB2024 06 30.06923020 04 29.98 -15 27 44.0          19.9 GXEM122958
Observer details:
104 San Marcello Pistoiese.  Observers P. Bacci, M. Maestripieri, M. D.
    Grazia.  Measurer P. Bacci.  0.60-m f/4 reflector + CCD.
958 Observatoire de Dax.  Observer P. Dupouy.  0.50-m f/4.5 Reflector + CMO.
F51 Pan-STARRS 1, Haleakala.  Observers J. Herman, T. Lowe, P. Minguez, A.
    Schultz, I. Smith.  Measurers K. Chambers, T. de Boer, J. Fairlamb, H.
    Gao, M. Huber, C.-C. Lin, E. Magnier, Y. Ramanjooloo, R. Wainscoat, R.
    Weryk.  1.8-m Ritchey-Chretien + CCD.
F52 Pan-STARRS 2, Haleakala.  Observers J. Herman, T. Lowe, P. Minguez, A.
    Schultz, I. Smith.  Measurers K. Chambers, T. de Boer, J. Fairlamb, H.
    Gao, M. Huber, C.-C. Lin, E. Magnier, Y. Ramanjooloo, R. Wainscoat, R.
    Weryk.  1.8-m Ritchey-Chretien + CCD.
Orbital elements:
2024 MO1                                                 Earth MOID = 0.0183 AU
Epoch 2024 Mar. 31.0 TT = JDT 2460400.5                 MPC                     
M 341.41797              (2000.0)            P               Q                  
n   0.57473818     Peri.  243.63074     -0.92309919     -0.28878890             
a   1.4327025      Node   278.69985     +0.37420834     -0.82674176             
e   0.6895018      Incl.   14.88634     -0.08863415     -0.48280332             
P   1.71           H   23.48          G   0.15           U   9                  
Residuals in seconds of arc
240628 F51  0.1-  0.0     240629 F52  0.0   0.0     240629 104  0.1+  0.1-
240628 F51  0.0   0.0     240629 F52  0.1-  0.0     240630 958  0.1-  1.3+
240628 F51  0.0   0.0     240629 F52  0.1+  0.2-    240630 958  0.2+  1.1+
240628 F51  0.1+  0.1+    240629 F52  0.1+  0.1-    240630 958  0.9-  1.6+
240629 F52  0.3+  0.1-    240629 104  0.2+  0.6-
Ephemeris:
2024 MO1                 a,e,i = 1.43, 0.69, 15                  q = 0.4449
Date    TT    R. A. (2000) Decl.     Delta      r    Elong.  Phase     V
2024 05 31    04 43 46.4 +04 58 09   0.3136  0.7202    17.2   155.5    29.9
...
2024 06 15    03 27 14.6 -02 24 32   0.1261  0.9230    40.2   134.8    25.0
...
2024 06 23    00 03 57.7 -14 59 47   0.06675 1.0262    96.7    79.6    20.4
...
2024 06 29    20 26 12.2 -16 06 21   0.09377 1.1005   152.3    25.4    19.7
2024 06 30    20 05 47.4 -15 29 08   0.1031  1.1126   157.6    20.4    19.8
2024 07 01    19 48 54.5 -14 53 16   0.1130  1.1246   161.9    16.3    19.9
...
2024 07 07    18 50 59.1 -12 20 56   0.1812  1.1952   169.2     9.2    20.8
...
2024 07 15    18 21 21.5 -10 55 42   0.2836  1.2850   158.8    16.6    22.2
...
2024 07 30    18 05 36.3 -10 26 03   0.4963  1.4407   142.4    25.5    23.9
A. U. Tomatic                (C) Copyright 2024 MPC           M.P.E.C. 2024-M122
    
    
More information about the Iaude
mailing list